Torna al catalogo

FENGYUN 1C DEB

AttivoLEO
NORAD 31648·DEBRIS·🇨🇳 China

Lanciato May 10, 1999 da Taiyuan Satellite Launch Center

Loading…

Prossimi Passaggi (prossime 24 ore)

TLE

In scadenzaSource: Space-Track

Epoca: Sep 9, 2026, 01:06 UTC

1 31648U 99025CBE 26252.04614210  .00004957  00000-0  24261-2 0  9994
2 31648 102.7876 197.0812 0040468 227.1624 132.6132 14.18229371757262

Traccia FENGYUN 1C DEB in tempo reale con AllMySat

Download on the App Store